#timestamp,LO_Frequency,Hit,StdDev 
1711299615.9,286046996.3,N
1711299635.7,286047005.1,N
1711299655.6,286047002.2,N
1711299675.4,286047004.0,N
1711299695.2,286047005.3,N
1711299715.1,286047004.9,N
1711299716.0,286047004.9,N
1711299735.8,286047008.8,N
1711299755.7,286047007.9,N
1711299775.5,286047004.7,N
1711299795.3,286047002.9,N
1711299815.2,286047003.8,N
1711299835.0,286046998.8,N
1711299835.9,286046998.8,N
1711299855.8,286047000.8,N
1711299875.6,286046999.9,N
1711299895.4,286047001.5,N
1711299915.3,286047006.0,N
1711299935.1,286047003.4,N
1711299955.8,286047002.2,N
1711299975.7,286047002.1,N
1711299995.5,286047000.4,N
1711300015.4,286047003.5,N
1711300035.2,286047002.5,N
1711300055.0,286047005.9,N
1711300055.9,286047005.9,N
1711300075.8,286047002.0,N
1711300095.6,286046995.2,N
1711300115.4,286046994.6,N
1711300135.3,286046996.0,N
1711300155.1,286046994.8,N
1711300175.9,286046993.9,N
1711300195.7,286046994.9,N
1711300215.5,286046999.3,N
1711300235.4,286047000.1,N
1711300255.2,286047005.4,N
1711300275.1,286047006.9,N
1711300276.0,286047006.9,N
1711300295.8,286047010.2,N
1711300315.6,286047012.0,N
1711300335.5,286047012.7,N
1711300355.3,286047017.2,Y
1711300375.2,286047016.6,P
1711300395.9,286047015.1,N
1711300415.7,286047013.0,N
1711300435.6,286047011.5,N
1711300455.4,286047012.4,N
1711300475.2,286047011.0,N
1711300495.1,286047011.3,N
1711300496.0,286047011.3,N
1711300515.8,286047009.2,N
1711300535.7,286047011.2,Y
1711300555.5,286047002.1,P
1711300575.3,286047011.9,N
1711300595.2,286047007.5,N
1711300615.0,286047008.0,N
1711300615.9,286047008.0,N
1711300635.8,286047012.2,Y
1711300655.6,286046999.9,P
1711300675.4,286046996.9,N
1711300695.3,286046994.2,N
1711300715.1,286046992.3,N
1711300735.9,286046997.5,N
1711300755.7,286046998.9,N
1711300775.5,286047004.8,N
1711300795.4,286047009.2,N
1711300815.2,286047006.6,N
1711300835.0,286047003.1,N
1711300836.0,286047003.1,N
1711300855.8,286046999.2,N
1711300875.6,286046995.4,N
1711300895.5,286046995.2,N
1711300915.3,286047000.8,N
1711300935.1,286047001.5,N
1711300955.9,286047007.4,N
1711300975.7,286047006.4,N
1711300995.6,286047011.9,N
1711301015.4,286047012.4,N
1711301035.2,286047008.0,N
1711301055.1,286047006.4,N
1711301056.0,286047006.4,N
1711301075.8,286047005.8,N
1711301095.7,286046999.0,N
1711301115.5,286047000.3,N
1711301135.4,286047005.6,N
1711301155.2,286047001.3,N
1711301175.0,286046998.6,N
1711301175.9,286046998.6,N
1711301195.8,286046999.6,N
1711301215.6,286046995.4,N
1711301235.4,286046995.4,N
1711301255.3,286046996.3,N
1711301275.1,286046995.7,N
1711301295.9,286046991.7,N
1711301315.7,286046992.5,N
1711301335.5,286046992.2,N
1711301355.4,286046994.4,N
1711301375.2,286046989.4,N
1711301395.1,286046988.0,N
1711301396.0,286046988.0,N
1711301415.8,286046991.7,N
1711301435.6,286046993.5,N
1711301455.5,286046993.2,N
1711301475.3,286046988.9,N
1711301495.2,286046994.1,N
1711301515.9,286046996.7,N
1711301535.7,286046998.3,N
1711301555.6,286046999.6,N
1711301575.4,286046992.8,N
1711301595.3,286046986.9,N
1711301615.1,286046988.0,N
1711301616.0,286046988.0,N
1711301635.8,286046994.2,N
1711301655.7,286046991.9,N
1711301675.5,286046994.7,N
1711301695.3,286046993.9,N
1711301715.2,286046995.7,N
1711301735.0,286046997.0,N
1711301735.9,286046997.0,N
1711301755.8,286046998.4,N
1711301775.6,286046997.7,N
1711301795.5,286046998.6,N
1711301815.3,286046996.8,N
1711301835.1,286046999.1,N
1711301855.9,286046999.6,N
1711301875.7,286046999.6,N
1711301895.6,286046994.9,N
1711301915.4,286047000.0,N
1711301935.2,286047003.5,N
1711301955.1,286047007.4,N
1711301956.0,286047007.4,N
1711301975.8,286047005.2,N
1711301995.6,286047007.9,N
1711302015.5,286047012.9,N
1711302035.3,286047014.7,N
1711302055.2,286047009.3,N
1711302075.0,286047015.2,N
1711302075.9,286047015.2,N
1711302095.7,286047014.0,N
1711302115.6,286047008.2,N
1711302135.4,286047011.8,N
1711302155.3,286047016.4,N
1711302175.1,286047009.3,N
1711302176.0,286047009.3,N
1711302195.8,286047004.4,N
1711302215.7,286047005.2,N
1711302235.5,286047002.1,N
1711302255.3,286047003.8,N
1711302275.2,286047003.1,N
1711302295.0,286046998.1,N
1711302295.9,286046998.1,N
1711302315.8,286047002.4,N
1711302335.6,286047004.8,N
1711302355.4,286047007.6,N
1711302375.3,286047010.0,N
1711302395.1,286047010.9,N
1711302415.9,286047008.6,N
1711302435.7,286047006.3,N
1711302455.5,286047004.9,N
1711302475.4,286047003.3,N
1711302495.2,286047000.9,N
1711302515.0,286047001.0,N
1711302515.9,286047001.0,N
1711302535.8,286047007.3,N
1711302555.6,286047007.1,N
1711302575.4,286047006.5,N
1711302595.3,286047006.3,N
1711302615.1,286047005.9,N
1711302635.9,286047006.2,N
1711302655.7,286047010.1,N
1711302675.5,286047012.1,N
1711302695.4,286047009.3,N
1711302715.2,286047014.9,Y
1711302735.0,286047009.3,P
1711302736.0,286047009.3,P
1711302755.8,286047008.2,P
1711302775.6,286047017.8,Y
1711302795.5,286047005.4,P
1711302815.3,286046996.3,N
1711302835.1,286046993.4,N
1711302855.9,286047000.9,N
1711302875.7,286046998.2,N
1711302895.5,286047003.0,N
1711302915.4,286047001.6,N
1711302935.2,286046997.0,N
1711302955.1,286046998.4,N
1711302956.0,286046998.4,N
1711302975.8,286047003.7,N
1711302995.6,286047007.0,N
1711303015.5,286047004.6,N
1711303035.3,286047004.2,N
1711303055.2,286047005.5,N
1711303075.9,286047006.6,N
1711303095.7,286047012.1,N
1711303115.6,286047009.4,N
1711303135.4,286047007.9,N
1711303155.2,286047009.1,N
1711303175.1,286047010.0,N
1711303176.0,286047010.0,N
1711303195.8,286047013.2,N
